[[{"header":{"parameterUnit":"m.s-1","parameterCategory":1,"la1":30.2991,"la2":30.254,"lo1":-89.0895,"lo2":-89.0444,"dy":0.0017,"dx":0.0017,"nx":28,"ny":28,"refTime":"2023-09-03T21:00:00:Z","depth":0,"parameterNumber":2,"parameterNumberName":"U-component_of_WINDS"},"data":[0,0,0,0,0,0,0,0,0,0,0,0,0,0,0,0,0,0,0,0,0,0,0,0,0,0,0,0,0,0,0,0,0,0,0,0,0,0,0,0,0,0,0,0,0,0,0,0,0,0,0,0,0,0,0,0,0,0,-3.6844,-3.6845,0,-3.6894,-3.6894,-3.6895,-3.6885,-3.6884,-3.6883,-3.6882,-3.6929,-3.6932,-3.6934,0,0,0,0,0,0,0,0,0,0,0,0,0,-3.6737,-3.6739,-3.6844,-3.6845,-3.6845,-3.6894,-3.6894,-3.6895,-3.6885,-3.6884,-3.6883,-3.6882,-3.6929,-3.6931,-3.6934,0,0,0,0,0,0,0,0,0,0,0,0,0,-3.6784,-3.6739,-3.6844,-3.6846,-3.6847,-3.6894,-3.6894,-3.6895,-3.6885,-3.6884,-3.6883,-3.6881,-3.6928,-3.6931,-3.6934,-3.6981,0,0,-3.6944,-3.6945,0,0,0,0,0,0,0,0,-3.6782,-3.6788,-3.6845,-3.6846,-3.6847,-3.6882,-3.6874,-3.6924,-3.6886,-3.6871,-3.6882,-3.6881,-3.6915,-3.6919,-3.6931,-3.6983,-3.6985,-3.6944,-3.6946,-3.6947,-3.6948,0,0,0,0,0,0,0,-3.6778,-3.6786,-3.6864,-3.6846,-3.6847,-3.6843,-3.6849,-3.6883,-3.6899,-3.6872,-3.6871,-3.6877,-3.6915,-3.6928,-3.6932,-3.6985,-3.6944,-3.6947,-3.6949,-3.695,-3.7076,-3.7077,0,0,0,0,0,0,-3.6775,-3.6783,-3.6862,-3.6865,-3.6811,-3.6847,-3.6852,-3.6872,-3.6899,-3.6902,-3.6879,-3.6877,-3.6923,-3.6928,-3.6933,-3.6988,-3.6947,-3.695,-3.6952,-3.7075,-3.7076,-3.7078,0,0,0,0,0,0,-3.6773,-3.6782,-3.686,-3.6824,-3.6834,-3.685,-3.6872,-3.6874,-3.6887,-3.6904,-3.6907,-3.6889,-3.6922,-3.6929,-3.6969,-3.699,-3.6952,-3.6954,-3.7073,-3.7075,-3.7077,-3.7099,0,0,0,0,0,0,-3.677,-3.6781,-3.68,-3.6825,-3.6836,-3.6896,-3.6873,-3.6876,-3.6893,-3.6891,-3.6915,-3.6917,-3.6922,-3.6964,-3.6972,-3.6993,-3.6957,-3.7071,-3.7074,-3.7076,-3.7096,-3.7101,-3.7106,0,0,0,0,0,-3.6766,-3.6804,-3.6801,-3.6811,-3.686,-3.6897,-3.6903,-3.6908,-3.6895,-3.6913,-3.6924,-3.6917,-3.6987,-3.6968,-3.6977,-3.7,-3.707,-3.7073,-3.7076,-3.7094,-3.71,-3.7106,0,0,0,0,0,0,-3.678,-3.6807,-3.6804,-3.6852,-3.6872,-3.6895,-3.6918,-3.6915,-3.6939,-3.6936,-3.6941,-3.6946,-3.6986,-3.6997,-3.6976,-3.7045,-3.7026,-3.7031,-3.7036,-3.7042,-3.7047,-3.7043,-3.696,0,0,0,0,0,-3.6789,-3.6818,-3.684,-3.6879,-3.689,-3.6902,-3.6919,-3.6921,-3.6942,-3.695,-3.6964,-3.6984,-3.701,-3.7027,-3.7052,-3.7098,-3.7102,-3.7118,-3.7123,-3.7127,-3.713,-3.7154,-3.716,-3.7089,-3.7089,-3.7089,0,0,-3.6807,-3.6825,-3.6843,-3.6882,-3.6899,-3.6927,-3.691,-3.6941,-3.6962,-3.6955,-3.6993,-3.7004,-3.7026,-3.7068,-3.7088,-3.7079,-3.7151,-3.7131,-3.7134,-3.7135,-3.7158,-3.7164,-3.717,-3.7091,-3.7091,-3.709,0,0,-3.6854,-3.6872,-3.6906,-3.6923,-3.6948,-3.6956,-3.6964,-3.6988,-3.6995,-3.7034,-3.7029,-3.7053,-3.7098,-3.7114,-3.7128,-3.718,-3.7174,-3.7189,-3.7213,-3.7236,-3.7241,-3.7246,-3.7263,-3.7269,-3.7193,-3.7193,-3.7193,0,-3.6873,-3.6917,-3.6924,-3.6955,-3.6972,-3.6968,-3.7002,-3.7017,-3.7049,-3.706,-3.7049,-3.7106,-3.712,-3.7166,-3.7178,-3.7191,-3.7198,-3.7185,-3.724,-3.7245,-3.725,-3.7266,-3.7273,-3.7194,-3.7194,-3.7194,-3.7194,0,-3.6938,-3.6969,-3.6993,-3.7024,-3.7044,-3.7076,-3.7086,-3.7105,-3.7106,-3.7114,-3.7153,-3.7171,-3.7199,-3.721,-3.7211,-3.7255,-3.7248,-3.7239,-3.722,-3.7258,-3.7273,-3.728,-3.7196,-3.7196,-3.7195,-3.7195,0,0,-3.6995,-3.7029,-3.7038,-3.7052,-3.7079,-3.7102,-3.7134,-3.7162,-3.7177,-3.7199,-3.7224,-3.7263,-3.7254,-3.727,-3.7273,-3.7293,-3.7331,-3.7281,-3.7281,-3.7288,-3.7379,-3.7384,-3.7391,-3.7328,-3.7329,-3.733,-3.7376,0,-3.7043,-3.71,-3.7107,-3.7157,-3.7184,-3.718,-3.7208,-3.7227,-3.7236,-3.7259,-3.7268,-3.7295,-3.7283,-3.7292,-3.7312,-3.7322,-3.7349,-3.7319,-3.735,-3.7351,-3.7342,-3.74,-3.7406,-3.7448,-3.7382,-3.7384,-3.7384,0,-3.7107,-3.7131,-3.7184,-3.7207,-3.7218,-3.7243,-3.7269,-3.7292,-3.7312,-3.7317,-3.7335,-3.7335,-3.7366,-3.7346,-3.7388,-3.7368,-3.7381,-3.7387,-3.7389,-3.7391,-3.7368,-3.7401,-3.7462,-3.7468,-3.7394,-3.7393,-3.7393,0,-3.7141,-3.7187,-3.7224,-3.7236,-3.7264,-3.7281,-3.7293,-3.7312,-3.7328,-3.7351,-3.7361,-3.7386,-3.74,-3.7419,-3.7425,-3.7411,-3.7466,-3.7447,-3.7469,-3.7469,-3.748,-3.7478,-3.7542,-3.7491,-3.7491,-3.7491,-3.7491,0,-3.7193,-3.7225,-3.724,-3.7262,-3.7297,-3.7304,-3.7338,-3.7349,-3.7367,-3.739,-3.7389,-3.7411,-3.7419,-3.7441,-3.7446,-3.7479,-3.7486,-3.7489,-3.749,-3.7488,-3.7488,-3.7495,-3.7492,-3.7493,-3.7492,-3.7492,-3.7492,0,-3.7237,-3.7248,-3.7288,-3.7311,-3.7317,-3.7342,-3.736,-3.7382,-3.739,-3.742,-3.7427,-3.7441,-3.7467,-3.7476,-3.7508,-3.7511,-3.7549,-3.7548,-3.7542,-3.7542,-3.7562,-3.7559,-3.7632,-3.7641,-3.7585,-3.7586,-3.7586,0,-3.7269,-3.7293,-3.7319,-3.7335,-3.7348,-3.7374,-3.739,-3.7398,-3.7415,-3.744,-3.7457,-3.7484,-3.7505,-3.7548,-3.756,-3.7584,-3.7582,-3.7606,-3.7586,-3.7583,-3.758,-3.7578,-3.758,-3.7609,-3.761,-3.761,-3.7611,0,-3.7324,-3.7328,-3.7352,-3.7378,-3.7398,-3.7419,-3.7439,-3.7452,-3.7462,-3.7481,-3.7509,-3.7525,-3.7558,-3.7584,-3.7608,-3.7619,-3.7616,-3.7617,-3.7623,-3.7621,-3.7616,-3.7617,-3.755,-3.7615,-3.7614,-3.7614,-3.7614,-3.7614,-3.7361,-3.7382,-3.7403,-3.743,-3.7446,-3.7464,-3.7485,-3.7496,-3.752,-3.7547,-3.755,-3.7579,-3.7598,-3.7631,-3.7643,-3.7665,-3.7658,-3.7667,-3.7669,-3.7671,-3.7672,-3.7614,-3.767,-3.767,-3.767,-3.767,-3.7669,0,-3.7414,-3.7428,-3.7452,-3.748,-3.7501,-3.7498,-3.7519,-3.7536,-3.7562,-3.7581,-3.7602,-3.7633,-3.7658,-3.7671,-3.7696,-3.7711,-3.771,-3.7717,-3.7715,-3.7717,-3.7677,-3.7669,-3.7717,-3.7717,-3.7717,-3.7717,-3.7717,-3.7717,-3.7444,-3.7479,-3.7486,-3.7528,-3.754,-3.757,-3.7582,-3.7598,-3.7613,-3.7648,-3.7669,-3.7678,-3.7694,-3.7719,-3.7741,-3.7745,-3.7753,-3.776,-3.7763,-3.7725,-3.772,-3.7715,-3.7707,-3.7763,-3.7763,-3.78,-3.78,-3.7801]},{"header":{"parameterUnit":"m.s-1","parameterCategory":1,"la1":30.2991,"la2":30.254,"lo1":-89.0895,"lo2":-89.0444,"dy":0.0017,"dx":0.0017,"nx":28,"ny":28,"refTime":"2023-09-03T21:00:00:Z","depth":0,"parameterNumber":3,"parameterNumberName":"V-component_of_WINDS"},"data":[0,0,0,0,0,0,0,0,0,0,0,0,0,0,0,0,0,0,0,0,0,0,0,0,0,0,0,0,0,0,0,0,0,0,0,0,0,0,0,0,0,0,0,0,0,0,0,0,0,0,0,0,0,0,0,0,0,0,5.4403,5.4404,0,5.4472,5.4473,5.4474,5.4448,5.4446,5.4445,5.4443,5.4506,5.4509,5.4512,0,0,0,0,0,0,0,0,0,0,0,0,0,5.424,5.4243,5.4403,5.4404,5.4405,5.4472,5.4473,5.4474,5.4448,5.4446,5.4444,5.4442,5.4505,5.4508,5.4512,0,0,0,0,0,0,0,0,0,0,0,0,0,5.431,5.4245,5.4403,5.44,5.4401,5.4472,5.4473,5.4474,5.4448,5.4446,5.4444,5.4442,5.4503,5.4508,5.4512,5.4588,0,0,5.4527,5.4529,0,0,0,0,0,0,0,0,5.4306,5.4316,5.44,5.4401,5.4401,5.4449,5.4438,5.4512,5.4449,5.443,5.4443,5.444,5.4488,5.4494,5.4512,5.4591,5.4594,5.4527,5.453,5.4532,5.4533,0,0,0,0,0,0,0,5.4301,5.4313,5.443,5.4401,5.4402,5.4393,5.44,5.4452,5.4471,5.4432,5.443,5.4439,5.4488,5.4507,5.4513,5.4594,5.4527,5.4531,5.4534,5.4536,5.4737,5.4739,0,0,0,0,0,0,5.4298,5.4309,5.4428,5.4432,5.4347,5.4398,5.4406,5.4436,5.4471,5.4474,5.4441,5.4437,5.45,5.4508,5.4515,5.4605,5.4532,5.4536,5.4539,5.4734,5.4737,5.474,0,0,0,0,0,0,5.4294,5.4308,5.4425,5.437,5.4385,5.4403,5.4437,5.4439,5.4458,5.4478,5.448,5.4458,5.4499,5.4508,5.457,5.4606,5.4538,5.4543,5.4731,5.4735,5.4739,5.4785,0,0,0,0,0,0,5.429,5.4307,5.4338,5.4371,5.4388,5.4482,5.4439,5.4442,5.4467,5.4463,5.4494,5.4497,5.4498,5.4563,5.4575,5.4612,5.4546,5.4728,5.4733,5.4737,5.478,5.479,5.4798,0,0,0,0,0,5.4284,5.4347,5.434,5.4355,5.4427,5.4484,5.4493,5.4496,5.447,5.45,5.4512,5.4496,5.4601,5.457,5.4583,5.4621,5.4726,5.4732,5.4737,5.4776,5.4788,5.4798,0,0,0,0,0,0,5.4315,5.4352,5.4344,5.4421,5.445,5.448,5.4518,5.4508,5.4543,5.4538,5.4537,5.4544,5.4607,5.462,5.4585,5.4695,5.4659,5.4667,5.4684,5.4696,5.4704,5.4699,5.455,0,0,0,0,0,5.4332,5.4378,5.4406,5.447,5.4486,5.4499,5.4524,5.4524,5.4553,5.4564,5.4581,5.4607,5.4646,5.4672,5.4709,5.4782,5.4787,5.4815,5.4824,5.4831,5.4838,5.4876,5.4888,5.4759,5.4759,5.4759,0,0,5.4365,5.439,5.4419,5.4477,5.45,5.4545,5.451,5.4559,5.4591,5.457,5.463,5.4644,5.4673,5.4741,5.4771,5.4753,5.4875,5.4838,5.4844,5.4847,5.4883,5.4895,5.4906,5.4763,5.4762,5.4761,0,0,5.4448,5.4474,5.453,5.4553,5.4589,5.4597,5.4611,5.4642,5.4651,5.4712,5.4697,5.4733,5.4801,5.4822,5.4842,5.4932,5.4918,5.4944,5.499,5.5028,5.5038,5.5047,5.5077,5.5089,5.4951,5.4951,5.4952,0,5.4485,5.4555,5.4559,5.461,5.4635,5.462,5.4675,5.4697,5.4742,5.4758,5.4738,5.4822,5.4841,5.4912,5.4935,5.4951,5.4964,5.494,5.5036,5.5045,5.5054,5.5083,5.5095,5.4954,5.4954,5.4954,5.4953,0,5.4596,5.4645,5.4685,5.4732,5.4761,5.4813,5.4823,5.4851,5.4848,5.4858,5.4918,5.494,5.4981,5.4998,5.4994,5.5068,5.5056,5.5037,5.5,5.5069,5.5096,5.5108,5.4959,5.4957,5.4957,5.4956,0,0,5.4702,5.475,5.4765,5.4785,5.4823,5.4858,5.4909,5.4951,5.4975,5.5006,5.5046,5.5104,5.5086,5.5108,5.5106,5.5139,5.5207,5.5115,5.5115,5.513,5.5289,5.5302,5.5316,5.5198,5.52,5.5202,5.5286,0,5.4787,5.488,5.4884,5.4967,5.501,5.4997,5.504,5.5066,5.5076,5.5112,5.5122,5.5162,5.5136,5.515,5.5182,5.5192,5.5239,5.5186,5.5233,5.5235,5.5226,5.533,5.5345,5.5423,5.5297,5.5298,5.53,0,5.49,5.4937,5.5024,5.5055,5.5073,5.5113,5.5151,5.5187,5.5215,5.5219,5.5244,5.5238,5.5286,5.5249,5.5315,5.5279,5.5298,5.5306,5.5309,5.5313,5.5271,5.5335,5.5448,5.5459,5.5317,5.5316,5.5314,0,5.4966,5.5037,5.5099,5.5117,5.5154,5.5182,5.5198,5.5225,5.5249,5.5282,5.5297,5.5334,5.5354,5.5381,5.5383,5.5356,5.5449,5.5412,5.5452,5.5452,5.5471,5.547,5.5588,5.5486,5.5486,5.5485,5.5485,0,5.5061,5.5115,5.5129,5.5167,5.5225,5.5229,5.5286,5.53,5.5323,5.5361,5.535,5.5385,5.5387,5.5422,5.5424,5.5477,5.5486,5.5489,5.5489,5.549,5.5489,5.5502,5.5496,5.5488,5.5488,5.5487,5.5487,0,5.5145,5.5158,5.5223,5.5254,5.5263,5.5304,5.5329,5.5363,5.5372,5.542,5.5431,5.5444,5.5485,5.5491,5.5538,5.5539,5.5602,5.5596,5.5593,5.5592,5.5631,5.5627,5.576,5.5777,5.5665,5.5666,5.5667,0,5.5205,5.5246,5.5281,5.5307,5.5326,5.5367,5.5393,5.5397,5.5423,5.5458,5.5488,5.5528,5.556,5.5625,5.5637,5.5673,5.5667,5.5711,5.5672,5.5671,5.5666,5.5663,5.5666,5.5718,5.572,5.5721,5.5721,0,5.5308,5.5312,5.5351,5.5391,5.5423,5.5454,5.5484,5.5504,5.5512,5.5541,5.5584,5.561,5.5658,5.5697,5.5732,5.5746,5.5734,5.5734,5.5745,5.5745,5.5741,5.5743,5.5613,5.573,5.573,5.5729,5.5728,5.5728,5.538,5.5416,5.5447,5.549,5.5513,5.554,5.5574,5.5588,5.5625,5.5666,5.5665,5.5712,5.5737,5.5783,5.5799,5.5834,5.5819,5.5835,5.5839,5.5842,5.5846,5.5737,5.584,5.584,5.5839,5.5839,5.5839,0,5.5482,5.5501,5.5541,5.5584,5.5617,5.5606,5.5637,5.5665,5.5707,5.5732,5.5765,5.5813,5.5851,5.5866,5.5902,5.5927,5.5922,5.5936,5.5933,5.5936,5.5858,5.5844,5.5939,5.5939,5.5939,5.5939,5.5939,5.5939,5.5539,5.5598,5.5606,5.5675,5.5693,5.574,5.5759,5.5784,5.5804,5.5859,5.5891,5.5902,5.5923,5.596,5.5993,5.5997,5.601,5.6026,5.6026,5.5952,5.5942,5.5932,5.592,5.6029,5.6029,5.6102,5.6103,5.6104]}]]